Regional Weather Roundup
Issued by NWS

Home | Current Version | Previous Version | Text Only | Print | Product List | Glossary Off
Versions: 1 2 3 4 5 6 7 8 9 10 11 12 13 14 15 16 17 18 19 20 21 22 23 24 25 26 27 28 29 30 31 32 33 34 35 36 37 38 39 40 41 42 43 44 45 46 47 48 49 50

000
ASUS43 KLOT 220809
RWRIL

ILLINOIS REGIONAL WEATHER ROUNDUP
NATIONAL WEATHER SERVICE CHICAGO/ROMEOVILLE IL
300 AM CDT MON MAY 22 2017

NOTE: "FAIR" INDICATES FEW OR NO CLOUDS BELOW 12,000 FEET WITH NO
SIGNIFICANT WEATHER AND/OR OBSTRUCTIONS TO VISIBILITY.

* THESE STATIONS ARE NOT UNDER NWS QUALITY CONTROL. THEY ALSO MAY NOT
  REPORT WEATHER SUCH AS PRECIPITATION OR FOG.

ILZ001-002-007-009-015-016-024-220900-
NORTHWEST ILLINOIS

CITY           SKY/WX    TMP DP  RH WIND       PRES   REMARKS
MOLINE         CLEAR     48  41  76 W7        30.04S
STERLING*      CLEAR     48  43  82 W8        30.03S
SAVANNA*       CLEAR     48  43  82 W3        30.02S
$$

ILZ003-004-008-010-011-017-018-220900-
NORTH CENTRAL ILLINOIS

CITY           SKY/WX    TMP DP  RH WIND       PRES   REMARKS
ROCKFORD       CLEAR     48  42  80 W10       30.02R
FREEPORT*      CLEAR     46  42  87 SW8       30.01S
ROCHELLE*      CLEAR     45  43  91 SW10      30.03R
DE KALB*       CLEAR     47  42  84 W10       30.02R
PERU*          CLEAR     47  42  81 SW9       30.05S
$$

ILZ005-006-012>014-019>023-220900-
NORTHEAST ILLINOIS

CITY           SKY/WX    TMP DP  RH WIND       PRES   REMARKS
CHICAGO-OHARE  MOCLDY    50  42  74 W13       29.99S
CHICAGO-MIDWAY CLOUDY    51  42  71 SW9       30.01S
AURORA         PTCLDY    49  43  80 SW10      30.03R
LANSING*       CLOUDY    51  43  76 W10       30.03S
WAUKEGAN       PTCLDY    49  42  77 SW7       29.96S
DUPAGE AIRPORT CLEAR     48  44  86 SW9       30.00S
KANKAKEE*      PTCLDY    49  43  78 SW7       30.06S
WHEELING       MOCLDY    50  43  77 W8        30.00S
MORRIS*        CLEAR     49  43  81 SW6       30.03S
ROMEOVILLE*    CLEAR     49  45  87 W12       30.03S
NORTHERLY ISL    N/A     52  41  66 W12         N/A
$$

LMZ740>746-220900-
SOUTHERN LAKE MICHIGAN

STATION/POSITION SKY/WX   TEMP    WIND        PRES    VSBY  WAVE
                          AIR SEA DIR/SP/G                  HT/PER
                          (F)     (DEG/KT/KT) (MB)    (MI)  (FT/S)
SOUTHERN BUOY              47 44  250/ 14/ 14 1014.7          2/ 4
WILMETTE HARBOR            51 53                N/A           1/ 2
HARRISON CRIB              53     250/ 14/ 16   N/A
BURNHAM HARBOR             52     290/ 12/ 13   N/A
CALUMET HARBOR             52     230/  4/ 11 1015.7F
BURNS HARBOR               53     230/ 10/ 16 1016.9S
MICHIGAN CITY              52     220/ 19/ 22   N/A
MICHIGAN CITY 6N           52 53  240/ 14/ 19   N/A           3/ 4
ST. JOSEPH                 52 54  250/ 16/ 21 1016.4          4/ 4
$$

ILZ025>027-034>036-040-047-049-050-058-095>099-220900-
WEST-CENTRAL ILLINOIS

CITY           SKY/WX    TMP DP  RH WIND       PRES   REMARKS
QUINCY         CLEAR     48  46  93 S6        30.10F
GALESBURG*     CLEAR     46  42  87 SW6       30.07R
MACOMB*        CLEAR     48  46  92 SW7       30.11S
JACKSONVILLE*  CLEAR     47  47  98 CALM      30.12S
PITTSFIELD*    CLEAR     51  49  93 CALM      30.12F
$$

ILZ028>032-037-038-041>044-048-051>054-059>061-220900-
CENTRAL ILLINOIS

CITY           SKY/WX    TMP DP  RH WIND       PRES   REMARKS
PONTIAC        CLEAR     50  47  90 SW12      30.07F
BLOOMINGTON    CLEAR     50  44  80 SW9       30.09F
DECATUR        CLEAR     50  46  86 SW6       30.11S
PEORIA         CLEAR     49  45  86 W5        30.08F
LACON*         CLEAR     49  44  84 SW6       30.06F
LINCOLN*       CLEAR     50  48  92 CALM      30.10S
SPRINGFIELD    PTCLDY    49  48  97 CALM      30.12S
TAYLORVILLE    CLEAR     50  49  95 CALM      30.12R
$$

ILZ033-039-045-046-055>057-062-063-220900-
EAST-CENTRAL ILLINOIS

CITY           SKY/WX    TMP DP  RH WIND       PRES   REMARKS
CHAMPAIGN      CLEAR     50  45  83 SW8       30.10S
RANTOUL*       CLEAR     50  47  89 SW6       30.09S
MATTOON        CLEAR     51  50  96 SW5       30.10F
PARIS*         CLOUDY    49  47  92 SW6       30.11S
$$

ILZ079-100>102-220900-
SOUTHWEST ILLINOIS

CITY           SKY/WX    TMP DP  RH WIND       PRES   REMARKS
ALTON          CLEAR     50  48  90 CALM      30.13S
BELLEVILLE     CLEAR     52  49  90 CALM      30.14S
CAHOKIA*       CLEAR     51  48  89 CALM      30.13S
SPARTA*        PTCLDY    53  50  90 CALM      30.14F
$$

ILZ064>066-069>071-074>076-080>082-084>086-088>090-092>094-220900-
SOUTH-CENTRAL ILLINOIS

CITY           SKY/WX    TMP DP  RH WIND       PRES   REMARKS
CARBONDALE     MOCLDY    53  53 100 S3        30.14S
CAIRO*         CLEAR     57  49  74 CALM      30.14S
EFFINGHAM*     CLOUDY    50  50 100 CALM      30.14R
MARION         PTCLDY    54  54 100 CALM      30.15S
MT. VERNON       N/A     49  49 100 CALM      30.14S FOG
CENTRALIA*     PTCLDY    52  52  99 CALM      30.13S
SALEM*         CLEAR     54  51  91 CALM      30.13S
METROPOLIS*    CLOUDY    55  50  84 CALM      30.14S
$$

ILZ067-068-072-073-078-083-087-091-220900-
SOUTHEAST ILLINOIS

CITY           SKY/WX    TMP DP  RH WIND       PRES   REMARKS
LAWRENCEVILLE  CLOUDY    54  51  90 CALM      30.13S
FLORA*         CLOUDY    53  52  94 CALM      30.13F
FAIRFIELD*     CLOUDY    53  52  99 CALM      30.13S
HARRISBURG*    CLOUDY    54  52  93 CALM      30.14F
ROBINSON*      CLOUDY    49  49  99 S3        30.14S
CARMI*         PTCLDY    55  50  84 CALM      30.14R
$$

ABBREVIATIONS USED IN REMARKS
   TC - TEMPERATURE IN CELSIUS
  WCI - WIND CHILL INDEX
   HX - HEAT INDEX
  VSB - VISIBILITY
$$





USA.gov is the U.S. government's official web portal to all federal, state and local government web resources and services.